EHI
0 0 1 1 0 0 0 0 0 0 0 0 1 0 0 0 0 0 0 0 0 0 0 0 0 0 0 0 0 0 0 0 0 0 0 0 0 0 0 0 0 0 0
0 0 1 1 0 0 0 0 0 0 0 0 1 0 0 0 0 0 0 0 0 0 0 0 0 0 0 0 0 0 0 0 0 0 0 0 0 0 0 0 0 0 0
0 0 1 1 1 0 0 0 0 0 0 0 0 0 0 0 0 0 0 0 0 0 0 0 0 0 0 0 0 0 0 0 0 0 0 0 0 0 0 0 0 0 0
0 0 1 2 1 0 0 0 0 0 0 0 0 0 0 0 0 0 0 0 0 0 0 0 0 0 0 0 0 0 0 0 0 0 0 0 0 0 0 0 0 0 0
1 1 2 3 1 0 0 0 0 0 0 0 0 0 0 0 0 0 0 0 0 0 0 0 0 0 0 0 0 0 0 0 0 0 0 0 0 0 0 0 0 0 0
2 3 3 3 2 1 1 1 0 0 0 0 0 0 0 0 0 0 0 0 0 0 0 0 0 0 0 0 0 0 0 0 0 0 0 0 0 0 0 0 0 0 0
3 3 3 3 3 2 2 1 0 0 0 0 0 0 0 0 0 0 0 0 0 0 0 0 0 0 0 0 0 0 0 0 0 0 0 0 0 0 0 0 0 0 0
3 3 3 3 3 3 1 0 0 0 1 1 0 0 0 0 0 0 0 0 0 0 0 0 0 0 0 0 0 0 0 0 0 0 0 0 0 0 0 0 0 0 0
3 2 1 1 2 2 1 0 0 0 1 1 0 0 0 0 0 0 0 0 0 0 0 0 0 0 0 0 0 0 0 0 0 0 0 0 0 0 0 0 0 0 0
2 1 0 0 1 1 0 0 0 0 1 1 0 0 0 0 0 0 0 0 0 0 0 0 0 0 0 0 0 0 0 0 0 0 0 0 0 0 0 0 0 0 0
2 1 0 0 0 0 0 0 0 0 0 0 0 0 0 0 0 0 0 0 0 0 0 0 0 0 0 0 0 0 0 0 0 0 0 0 0 0 0 0 0 0 0
1 0 0 0 0 0 0 0 0 0 0 0 0 0 0 0 0 0 0 0 0 0 0 0 0 0 0 0 0 0 0 0 0 0 0 0 0 0 0 0 0 0 0
0 0 0 0 0 0 0 0 0 0 0 0 0 0 0 0 0 0 0 0 0 0 0 0 0 0 0 0 0 0 0 0 0 0 0 0 0 0 0 0 0 0 0
0 0 0 0 0 0 0 0 0 0 0 0 0 0 0 0 0 0 0 0 0 0 0 0 0 0 0 0 0 0 0 0 0 0 0 0 0 0 0 0 0 0 0
0 0 0 0 0 0 0 0 0 0 0 0 0 0 0 0 0 0 0 0 0 0 0 0 0 0 0 0 0 0 0 0 0 0 0 0 0 0 0 0 0 0 0
0 0 0 0 0 0 0 0 0 0 0 0 0 0 0 0 0 0 0 0 0 0 0 0 0 0 0 0 0 0 0 0 0 0 0 0 0 0 0 0 0 0 0
0 0 0 0 0 0 0 0 0 0 0 0 0 0 0 0 0 0 0 0 0 0 0 0 0 0 0 0 0 0 0 0 0 0 0 0 0 0 0 0 0 0 0
0 0 0 0 0 0 0 0 0 0 0 0 0 0 0 0 0 0 0 0 0 0 0 0 0 0 0 0 0 0 0 0 0 0 0 0 0 0 0 0 0 0 0
0 0 0 0 0 0 0 0 0 0 0 0 0 0 0 0 0 0 0 0 0 0 0 0 0 0 0 0 0 0 0 0 0 0 0 0 0 0 0 0 0 0 0
0 0 0 0 0 0 0 0 0 0 0 0 0 0 0 0 0 0 0 0 0 0 0 0 0 0 0 0 0 0 0 0 0 0 0 0 0 0 0 0 0 0 0
0 0 0 0 0 0 0 0 0 0 0 0 0 0 0 0 0 0 0 0 0 0 0 0 0 0 0 0 0 0 0 0 0 0 0 0 0 0 0 0 0 0 0
0 0 0 0 0 0 0 0 0 0 0 0 0 0 0 0 0 0 0 0 0 0 0 0 0 0 0 0 0 0 0 0 0 0 0 0 0 0 0 0 0 0 0
0 0 0 0 0 0 0 0 0 0 0 0 0 0 0 0 0 0 0 0 0 0 0 0 0 0 0 0 0 0 0 0 0 0 0 0 0 0 0 0 0 0 0
0 0 0 0 0 0 0 0 0 0 0 0 0 0 0 0 0 0 0 0 0 0 0 0 0 0 0 0 0 0 0 0 0 0 0 0 0 0 0 0 0 0 0
0 0 0 0 0 0 1 1 0 0 0 0 0 0 0 0 0 0 0 0 0 0 0 0 0 0 0 0 0 0 0 0 0 0 0 0 0 0 0 0 0 0 0
0 0 0 0 0 0 1 1 1 0 0 0 0 0 0 0 0 0 0 0 0 0 0 0 0 0 0 0 0 0 0 0 0 0 0 0 0 0 0 0 0 0 0
Wind_Speed
1 2 2 1 1 2 2 3 3 4 4 5 6 6 6 6 6 7 7 7 7 7 8 9 9 10 10 10 11 11 11 11 11 10 10 10 10 11 10 8 7 10 11
3 1 2 2 1 2 2 3 3 4 4 5 6 6 6 6 6 6 7 6 6 7 8 9 9 10 10 10 10 10 10 10 10 9 7 8 9 9 9 8 8 9 10
2 0 2 2 1 2 2 2 2 3 4 5 5 5 5 5 6 6 6 6 6 7 8 8 9 9 9 10 10 10 9 9 8 6 3 6 8 8 9 9 9 10 10
2 1 1 3 2 1 2 2 2 3 4 4 4 4 5 5 5 5 5 5 6 7 8 8 9 9 9 9 9 9 9 8 6 2 4 6 7 8 8 9 9 9 9
2 1 2 3 2 1 1 2 2 3 3 4 4 4 4 4 5 5 5 5 6 6 7 8 9 9 9 9 8 8 8 7 4 2 5 5 6 8 8 9 9 9 9
2 2 2 3 2 2 1 1 2 2 3 3 3 4 3 3 4 5 5 5 5 6 7 8 8 9 9 9 8 8 8 6 4 5 5 5 6 8 9 9 9 9 9
2 3 2 3 3 2 2 1 1 2 3 3 2 3 3 4 4 4 5 5 5 6 7 8 8 8 9 9 8 8 7 3 3 5 4 5 7 8 9 8 8 8 8
2 2 2 2 2 2 2 1 1 1 2 3 2 2 3 4 4 4 4 5 6 6 7 8 8 8 8 8 8 8 6 3 4 5 4 5 7 7 8 8 8 9 9
2 2 2 2 1 1 1 1 1 0 1 2 2 2 2 3 4 4 4 5 5 6 7 7 7 7 8 8 8 7 6 2 3 4 4 4 6 6 7 8 8 9 9
2 3 3 2 2 1 1 0 1 0 1 1 2 2 2 2 3 3 3 4 5 6 6 7 7 7 7 7 7 7 5 3 4 4 3 4 5 6 7 8 8 9 9
3 3 3 3 2 1 1 1 1 0 1 2 2 2 2 3 3 3 3 4 4 5 6 6 6 6 6 7 7 5 4 3 4 3 3 5 5 5 6 7 7 8 8
4 3 3 3 2 2 1 2 2 1 1 2 2 3 2 2 1 2 4 4 4 5 5 6 6 6 4 5 5 4 3 3 3 3 3 5 5 5 5 6 7 7 7
4 3 3 3 2 2 1 1 1 1 0 1 1 2 2 2 2 2 2 3 3 4 4 5 5 4 3 3 3 3 3 2 2 2 4 4 4 5 5 6 6 7 6
4 3 3 3 2 2 2 1 1 0 0 0 0 1 1 1 2 2 2 1 2 2 3 3 3 4 3 4 4 4 3 2 2 2 3 4 4 4 5 6 6 6 6
4 3 3 3 3 2 1 1 1 1 0 0 1 1 2 2 2 2 2 2 2 2 3 3 3 4 3 3 3 3 3 3 2 2 3 4 4 5 5 5 6 6 6
4 4 3 3 3 2 2 1 1 1 1 1 0 1 2 2 2 2 2 2 2 2 3 4 4 4 3 2 2 2 3 2 2 2 2 4 4 4 5 5 5 6 7
5 4 4 4 3 2 2 2 1 1 2 2 1 2 2 2 2 2 2 2 2 2 3 3 4 3 3 3 3 2 2 2 2 2 2 2 3 4 3 4 5 5 6
5 4 3 2 2 2 2 2 1 1 2 2 2 2 2 2 2 2 2 2 2 2 2 3 4 4 3 3 2 2 2 2 2 2 2 2 2 2 3 4 4 5 4
4 4 3 3 2 2 2 2 1 1 1 2 2 2 3 3 3 2 2 2 3 3 3 3 3 3 3 3 2 1 1 1 1 1 2 2 1 1 2 3 4 3 4
3 3 2 2 2 2 2 1 1 1 1 1 1 2 3 2 3 2 2 3 3 2 2 3 3 3 3 3 2 2 1 1 1 1 2 1 1 2 2 2 2 2 3
2 2 2 2 2 1 1 1 2 2 1 1 1 2 2 3 3 3 3 3 3 3 3 4 3 4 3 3 2 2 1 1 1 1 1 1 2 1 1 1 1 1 1
2 2 2 2 2 2 2 2 2 1 1 1 1 2 2 3 3 3 4 3 3 3 4 4 4 3 3 2 2 2 2 2 2 1 1 1 2 1 1 1 1 1 1
2 3 2 3 2 2 2 2 1 1 1 1 2 1 2 2 3 3 4 4 4 4 3 4 4 4 4 3 2 2 2 2 1 2 2 2 2 2 2 1 2 2 2
3 3 3 3 3 2 2 3 3 3 3 2 2 2 2 2 3 3 4 4 4 3 4 4 4 3 4 3 2 1 1 0 2 1 2 2 2 3 3 2 3 3 2
2 3 3 3 3 2 3 3 3 3 2 2 2 2 2 2 3 3 4 4 4 3 4 5 4 4 4 4 3 2 1 1 2 2 3 3 3 3 3 3 3 3 3
2 2 2 2 3 2 3 3 3 3 3 2 2 2 2 1 2 3 4 4 4 3 4 5 5 5 4 4 3 3 2 2 2 2 3 3 3 3 3 3 4 3 3
Wind_Direction
350 336 9 8 51 90 100 111 120 130 126 131 132 131 129 125 125 128 125 122 119 117 116 113 110 109 104 101 98 97 94 90 88 87 83 83 88 90 89 88 94 92 90
330 327 49 14 52 97 105 113 111 128 132 129 131 131 132 134 132 128 131 129 128 124 120 118 113 112 107 104 101 98 95 92 90 87 91 95 87 90 90 79 64 87 94
351 26 96 35 56 84 97 110 115 127 135 130 128 133 139 138 137 131 129 132 133 132 129 124 117 113 108 106 105 102 98 96 94 91 126 111 101 94 94 91 88 91 95
0 33 75 50 55 77 108 114 120 128 130 130 133 138 149 151 145 137 133 133 135 134 131 125 120 115 112 110 108 107 104 102 101 145 121 100 105 98 97 95 92 90 92
20 24 54 43 51 83 116 130 137 135 139 139 138 144 145 147 144 140 137 133 135 135 133 127 124 122 120 115 111 109 109 108 119 148 100 101 101 101 97 95 91 91 91
17 18 48 34 40 57 94 129 158 162 154 147 148 153 153 151 151 145 142 134 135 136 133 131 128 125 123 120 115 111 109 116 156 117 106 103 101 105 102 98 95 92 91
9 2 27 32 24 37 54 113 137 168 165 158 158 158 158 160 154 149 144 142 136 138 136 134 131 129 127 124 119 114 108 112 133 111 107 101 95 102 103 99 98 96 95
9 6 17 21 14 19 23 24 53 130 156 153 155 153 150 149 156 147 149 146 142 142 141 136 135 134 131 126 121 117 114 135 128 114 107 102 93 102 103 101 99 99 96
17 14 6 356 347 344 359 15 3 118 133 141 142 133 128 135 141 141 142 146 142 139 137 134 134 134 130 127 122 118 111 115 135 117 111 102 99 105 106 106 103 99 94
16 10 356 348 335 306 280 2 8 30 117 129 126 96 96 133 138 126 129 128 138 136 132 132 129 129 128 125 122 121 124 166 136 125 121 105 105 111 109 109 105 101 97
355 356 349 343 334 317 303 302 253 190 157 161 149 119 167 179 161 153 125 111 127 133 132 132 129 120 122 122 119 122 159 163 137 125 116 98 117 119 114 114 112 107 102
320 330 334 326 321 308 309 302 271 245 205 209 193 173 177 162 140 148 108 102 117 128 131 127 127 136 152 145 135 159 169 158 143 132 111 104 129 129 119 118 122 117 110
295 308 323 316 308 305 299 287 299 286 266 252 176 167 172 158 146 155 138 141 147 153 151 139 154 162 162 150 158 165 155 155 147 137 118 116 139 140 131 124 125 129 126
289 298 310 311 300 289 291 280 275 267 283 358 121 176 191 178 172 164 161 168 175 166 157 160 167 153 152 150 158 157 151 159 151 132 108 115 134 138 136 135 130 134 133
284 288 301 299 291 286 276 272 255 229 225 174 170 192 199 193 184 178 165 165 178 169 163 158 159 151 144 141 149 151 148 146 149 143 117 100 120 127 129 136 136 135 135
283 285 289 279 272 267 258 252 235 206 173 165 191 191 191 196 190 181 175 166 171 175 168 163 159 151 141 138 139 140 142 147 142 136 129 112 102 112 123 132 137 134 132
281 281 280 271 262 253 240 231 213 195 190 173 173 181 178 191 185 180 182 170 168 165 162 158 153 148 136 135 139 139 137 140 143 141 133 129 124 104 113 130 137 135 131
283 275 274 271 262 252 234 229 216 200 198 191 180 178 179 184 185 180 178 175 164 168 163 164 157 149 146 149 145 136 127 129 149 147 145 143 137 127 104 101 125 138 137
286 275 266 264 251 244 231 213 201 199 204 203 193 184 187 179 179 178 175 166 163 166 165 167 163 155 153 148 142 129 117 133 142 154 150 139 141 143 129 103 105 119 136
284 274 267 267 262 246 227 206 191 194 206 205 197 199 191 182 177 174 169 165 160 157 159 164 159 146 148 143 130 116 102 128 152 162 169 163 169 163 155 148 136 116 121
292 281 275 267 258 242 226 219 213 210 213 210 204 200 192 185 184 180 173 163 163 165 162 161 161 146 139 143 144 132 123 140 152 156 173 181 173 165 155 155 145 143 133
297 290 279 260 240 226 233 235 232 216 218 222 217 197 196 194 193 187 177 169 168 162 159 161 167 160 158 174 177 173 180 182 176 190 200 206 198 178 178 179 173 188 196
294 287 272 269 253 232 226 215 195 186 197 207 219 203 200 196 191 182 183 175 173 171 169 173 178 176 171 184 200 205 205 208 171 194 219 223 218 216 208 207 212 215 211
289 282 271 269 258 235 213 210 208 213 216 218 212 203 194 193 186 177 181 177 178 178 177 177 180 188 178 179 188 236 267 253 206 195 202 214 232 243 233 228 230 225 226
284 279 272 263 254 235 217 213 212 221 222 208 194 189 186 182 179 174 174 175 179 182 183 180 176 188 193 191 191 187 180 210 230 230 224 213 226 234 240 237 235 235 237
281 274 272 259 251 232 217 214 211 214 212 201 200 192 182 175 175 173 175 177 184 190 191 187 179 188 198 196 196 194 200 207 214 230 240 232 239 236 242 245 239 236 233